Tracking 21612 objects as of 19-Oct-2020
HD Live streaming from Space Station
objects crossing your sky now

SL-12 R/B(2)

Track SL-12 R/B(2) now!


NORAD ID: 14595
Int'l Code: 1983-127F
Perigee: 18,904.4 km
Apogee: 19,236.8 km
Inclination: 66.5 °
Period: 673.1 minutes
Semi major axis: 25441 km
RCS: 2.0988 m2 (large)
Launch date: December 29, 1983
Source: Commonwealth of Independent States (former USSR) (CIS)
Launch site: TYURATAM MISSILE AND SPACE COMPLEX (TTMTR)

Note: This is a ROCKET BODY
aabbcc
Your satellite tracking list
Your tracking list is empty




NASA's NSSDC Master Catalog

Two Line Element Set (TLE):
1 14595U 83127F   20293.15737498 -.00000060  00000-0  00000+0 0  9991
2 14595  66.4556  31.9726 0065340 195.4884 179.3692  2.13937355227267
Source of the keplerian elements: AFSPC